BTN219 VIDP-VNKT

Flight info

Callsign BTN219
Flight time 1h 7m
Altitude 39000
Route ALI6G ALI G452 LKN G598 SMR SMR
Aircraft A20N/M-SDE2E3FGHIRWXY/LB1

Departure

Time 2026-05-08 04:49
Airport Indira Gandhi International Airport (VIDP)

Arrival

Time 2026-05-08 05:56
Airport Tribhuvan International Airport (VNKT)
Time Latitude Longitude Altitude Speed Heading
2026-05-08 04:35 28.55175 77.08878 773 ft 0 kts 240°
2026-05-08 04:40 28.55176 77.08880 773 ft 2 kts 240°
2026-05-08 04:40 28.55183 77.08894 774 ft 2 kts 240°
2026-05-08 04:41 28.55190 77.08908 774 ft 2 kts 235°
2026-05-08 04:41 28.55201 77.08923 773 ft 2 kts 188°
2026-05-08 04:41 28.55213 77.08920 773 ft 1 kts 150°
2026-05-08 04:41 28.55214 77.08919 773 ft 0 kts 150°
2026-05-08 04:42 28.55214 77.08920 773 ft 0 kts 150°
2026-05-08 04:42 28.55203 77.08927 773 ft 4 kts 150°
2026-05-08 04:43 28.55159 77.08955 773 ft 10 kts 150°
2026-05-08 04:43 28.55102 77.09009 773 ft 12 kts 131°
2026-05-08 04:43 28.55033 77.09063 773 ft 13 kts 150°
2026-05-08 04:43 28.54951 77.09116 772 ft 14 kts 149°
2026-05-08 04:44 28.54860 77.09178 772 ft 16 kts 148°
2026-05-08 04:44 28.54761 77.09175 771 ft 15 kts 196°
2026-05-08 04:44 28.54735 77.09072 770 ft 16 kts 284°
2026-05-08 04:44 28.54767 77.08938 770 ft 19 kts 286°
2026-05-08 04:45 28.54804 77.08785 770 ft 21 kts 283°
2026-05-08 04:45 28.54842 77.08610 770 ft 24 kts 285°
2026-05-08 04:45 28.54888 77.08421 770 ft 26 kts 285°
2026-05-08 04:45 28.54933 77.08216 770 ft 28 kts 285°
2026-05-08 04:46 28.54984 77.07997 770 ft 29 kts 284°
2026-05-08 04:46 28.55037 77.07767 771 ft 31 kts 284°
2026-05-08 04:46 28.55046 77.07605 770 ft 18 kts 219°
2026-05-08 04:46 28.54985 77.07580 768 ft 0 kts 194°
2026-05-08 04:47 28.54970 77.07576 767 ft 6 kts 194°
2026-05-08 04:47 28.54905 77.07557 763 ft 13 kts 195°
2026-05-08 04:47 28.54850 77.07579 762 ft 0 kts 93°
2026-05-08 04:47 28.54849 77.07602 761 ft 7 kts 95°
2026-05-08 04:48 28.54822 77.07728 759 ft 36 kts 104°
2026-05-08 04:48 28.54703 77.08257 761 ft 99 kts 104°
2026-05-08 04:48 28.54496 77.09211 757 ft 147 kts 104°
2026-05-08 04:48 28.54245 77.10398 1140 ft 158 kts 105°
2026-05-08 04:49 28.53979 77.11679 1504 ft 176 kts 107°
2026-05-08 04:49 28.53652 77.13083 1862 ft 197 kts 107°
2026-05-08 04:49 28.53298 77.14592 2546 ft 192 kts 106°
2026-05-08 04:49 28.52967 77.16104 3048 ft 201 kts 107°
2026-05-08 04:50 28.52356 77.17539 3206 ft 210 kts 128°
2026-05-08 04:50 28.51391 77.18942 3399 ft 239 kts 128°
2026-05-08 04:50 28.50328 77.20502 3900 ft 257 kts 128°
2026-05-08 04:50 28.49218 77.22136 4782 ft 263 kts 128°
2026-05-08 04:51 28.48070 77.23816 5566 ft 273 kts 128°
2026-05-08 04:51 28.46880 77.25552 6315 ft 283 kts 128°
2026-05-08 04:51 28.45654 77.27342 7061 ft 290 kts 128°
2026-05-08 04:51 28.44403 77.29173 7818 ft 297 kts 128°
2026-05-08 04:52 28.43129 77.31038 8648 ft 300 kts 129°
2026-05-08 04:52 28.41835 77.32925 9467 ft 305 kts 129°
2026-05-08 04:52 28.40521 77.34838 10226 ft 311 kts 129°
2026-05-08 04:52 28.39136 77.36849 10528 ft 335 kts 128°
2026-05-08 04:53 28.37670 77.38979 10775 ft 356 kts 128°
2026-05-08 04:53 28.36123 77.41226 11402 ft 364 kts 128°
2026-05-08 04:53 28.34556 77.43501 12127 ft 368 kts 128°
2026-05-08 04:53 28.32967 77.45807 12852 ft 374 kts 128°
2026-05-08 04:54 28.31351 77.48149 13530 ft 379 kts 128°
2026-05-08 04:54 28.29722 77.50510 14217 ft 383 kts 128°
2026-05-08 04:54 28.28066 77.52910 14926 ft 385 kts 128°
2026-05-08 04:54 28.26403 77.55319 15596 ft 389 kts 128°
2026-05-08 04:55 28.24721 77.57755 16266 ft 393 kts 128°
2026-05-08 04:55 28.23027 77.60207 16923 ft 396 kts 128°
2026-05-08 04:55 28.21323 77.62672 17584 ft 399 kts 128°
2026-05-08 04:55 28.19619 77.65135 18222 ft 403 kts 128°
2026-05-08 04:56 28.17881 77.67645 18752 ft 407 kts 128°
2026-05-08 04:56 28.16121 77.70186 19280 ft 412 kts 128°
2026-05-08 04:56 28.14380 77.72699 19820 ft 415 kts 128°
2026-05-08 04:56 28.12585 77.75287 20350 ft 420 kts 128°
2026-05-08 04:57 28.10771 77.77902 20875 ft 424 kts 128°
2026-05-08 04:57 28.08937 77.80542 21398 ft 428 kts 128°
2026-05-08 04:57 28.07088 77.83203 21928 ft 432 kts 128°
2026-05-08 04:57 28.05215 77.85898 22445 ft 437 kts 128°
2026-05-08 04:58 28.03349 77.88580 22952 ft 441 kts 128°
2026-05-08 04:58 28.01446 77.91315 23490 ft 444 kts 128°
2026-05-08 04:58 27.99497 77.94113 23939 ft 448 kts 128°
2026-05-08 04:58 27.97585 77.96858 24371 ft 452 kts 128°
2026-05-08 04:59 27.95630 77.99660 24806 ft 455 kts 128°
2026-05-08 04:59 27.93656 78.02489 25226 ft 459 kts 128°
2026-05-08 04:59 27.91670 78.05333 25642 ft 462 kts 128°
2026-05-08 04:59 27.89669 78.08196 26043 ft 466 kts 128°
2026-05-08 05:00 27.87649 78.11085 26422 ft 470 kts 128°
2026-05-08 05:00 27.85620 78.13985 26825 ft 473 kts 128°
2026-05-08 05:00 27.83655 78.16984 27215 ft 476 kts 122°
2026-05-08 05:00 27.82043 78.20210 27578 ft 478 kts 115°
2026-05-08 05:01 27.80706 78.23715 27923 ft 482 kts 111°
2026-05-08 05:01 27.79421 78.27176 28277 ft 485 kts 112°
2026-05-08 05:01 27.78106 78.30696 28610 ft 488 kts 112°
2026-05-08 05:01 27.76777 78.34240 28961 ft 490 kts 112°
2026-05-08 05:02 27.75442 78.37793 29270 ft 494 kts 112°
2026-05-08 05:02 27.74097 78.41369 29591 ft 496 kts 112°
2026-05-08 05:02 27.72740 78.44974 29906 ft 499 kts 112°
2026-05-08 05:02 27.71372 78.48603 30178 ft 502 kts 112°
2026-05-08 05:03 27.70002 78.52237 30459 ft 505 kts 112°
2026-05-08 05:03 27.68638 78.55850 30735 ft 507 kts 112°
2026-05-08 05:03 27.67253 78.59516 31028 ft 509 kts 112°
2026-05-08 05:03 27.65859 78.63202 31362 ft 510 kts 112°
2026-05-08 05:04 27.64463 78.66891 31727 ft 510 kts 112°
2026-05-08 05:04 27.63070 78.70568 32075 ft 510 kts 113°
2026-05-08 05:04 27.61675 78.74247 32426 ft 510 kts 113°
2026-05-08 05:04 27.60281 78.77919 32756 ft 510 kts 113°
2026-05-08 05:05 27.58900 78.81554 33073 ft 510 kts 113°
2026-05-08 05:05 27.57497 78.85244 33391 ft 510 kts 113°
2026-05-08 05:05 27.56098 78.88920 33684 ft 510 kts 113°
2026-05-08 05:05 27.54697 78.92596 33959 ft 511 kts 113°
2026-05-08 05:06 27.53292 78.96279 34199 ft 511 kts 113°
2026-05-08 05:06 27.51888 78.99955 34421 ft 511 kts 113°
2026-05-08 05:06 27.50495 79.03599 34608 ft 512 kts 113°
2026-05-08 05:06 27.49083 79.07292 34801 ft 513 kts 114°
2026-05-08 05:07 27.47671 79.10980 34988 ft 513 kts 114°
2026-05-08 05:07 27.46256 79.14672 35167 ft 514 kts 114°
2026-05-08 05:07 27.44837 79.18369 35363 ft 514 kts 114°
2026-05-08 05:07 27.43419 79.22063 35541 ft 515 kts 114°
2026-05-08 05:08 27.41996 79.25766 35726 ft 515 kts 114°
2026-05-08 05:08 27.40571 79.29469 35899 ft 516 kts 114°
2026-05-08 05:08 27.39144 79.33175 36069 ft 516 kts 114°
2026-05-08 05:08 27.37712 79.36890 36240 ft 516 kts 114°
2026-05-08 05:09 27.36278 79.40605 36406 ft 517 kts 114°
2026-05-08 05:09 27.34863 79.44270 36571 ft 517 kts 114°
2026-05-08 05:09 27.33427 79.47986 36729 ft 518 kts 114°
2026-05-08 05:09 27.31973 79.51696 36886 ft 518 kts 115°
2026-05-08 05:10 27.30489 79.55394 37053 ft 518 kts 115°
2026-05-08 05:10 27.27508 79.62780 37367 ft 519 kts 115°
2026-05-08 05:10 27.26019 79.66478 37500 ft 519 kts 115°
2026-05-08 05:11 27.24529 79.70181 37649 ft 520 kts 115°
2026-05-08 05:11 27.23036 79.73891 37803 ft 520 kts 115°
2026-05-08 05:11 27.21547 79.77590 37944 ft 520 kts 115°
2026-05-08 05:11 27.20052 79.81299 38082 ft 521 kts 115°
2026-05-08 05:12 27.18579 79.84951 38214 ft 521 kts 115°
2026-05-08 05:12 27.17080 79.88665 38351 ft 521 kts 115°
2026-05-08 05:12 27.15585 79.92362 38471 ft 521 kts 115°
2026-05-08 05:12 27.14080 79.96083 38579 ft 522 kts 115°
2026-05-08 05:13 27.12581 79.99786 38691 ft 521 kts 115°
2026-05-08 05:13 27.11080 80.03491 38816 ft 521 kts 115°
2026-05-08 05:13 27.09579 80.07192 38893 ft 521 kts 116°
2026-05-08 05:14 27.06576 80.14583 38900 ft 520 kts 116°
2026-05-08 05:14 27.03572 80.21964 38901 ft 520 kts 116°
2026-05-08 05:15 27.00563 80.29347 38904 ft 520 kts 116°
2026-05-08 05:15 26.97549 80.36727 38905 ft 520 kts 116°
2026-05-08 05:16 26.94536 80.44091 38911 ft 519 kts 116°
2026-05-08 05:16 26.91542 80.51395 38908 ft 519 kts 116°
2026-05-08 05:17 26.88526 80.58741 38912 ft 518 kts 116°
2026-05-08 05:17 26.85506 80.66084 38921 ft 518 kts 117°
2026-05-08 05:18 26.82484 80.73417 38926 ft 518 kts 117°
2026-05-08 05:18 26.79461 80.80739 38936 ft 518 kts 117°
2026-05-08 05:19 26.77306 80.86996 38933 ft 520 kts 104°
2026-05-08 05:19 26.76531 80.93634 38919 ft 519 kts 89°
2026-05-08 05:20 26.77219 81.01654 38914 ft 517 kts 81°
2026-05-08 05:20 26.78109 81.09620 38913 ft 518 kts 81°
2026-05-08 05:21 26.78991 81.17642 38905 ft 519 kts 81°
2026-05-08 05:21 26.79868 81.25670 38902 ft 520 kts 81°
2026-05-08 05:22 26.80737 81.33660 38910 ft 521 kts 81°
2026-05-08 05:22 26.81611 81.41738 38921 ft 522 kts 81°
2026-05-08 05:23 26.82480 81.49815 38919 ft 522 kts 82°
2026-05-08 05:23 26.83341 81.57864 38922 ft 523 kts 82°
2026-05-08 05:24 26.84204 81.65969 38930 ft 524 kts 82°
2026-05-08 05:24 26.84916 81.72703 38922 ft 522 kts 82°
2026-05-08 05:25 26.85908 81.82122 38920 ft 523 kts 82°
2026-05-08 05:25 26.86619 81.88908 38923 ft 523 kts 82°
2026-05-08 05:26 26.87461 81.97000 38922 ft 523 kts 82°
2026-05-08 05:26 26.88295 82.05059 38922 ft 524 kts 82°
2026-05-08 05:27 26.89130 82.13167 38921 ft 524 kts 82°
2026-05-08 05:27 26.89963 82.21298 38926 ft 524 kts 82°
2026-05-08 05:28 26.90790 82.29418 38926 ft 524 kts 82°
2026-05-08 05:28 26.91607 82.37495 38929 ft 524 kts 82°
2026-05-08 05:29 26.92425 82.45618 38929 ft 525 kts 83°
2026-05-08 05:29 26.93239 82.53751 38933 ft 525 kts 83°
2026-05-08 05:30 26.94048 82.61888 38933 ft 525 kts 83°
2026-05-08 05:30 26.94852 82.70017 38932 ft 524 kts 83°
2026-05-08 05:31 26.95647 82.78102 38930 ft 524 kts 83°
2026-05-08 05:31 26.96441 82.86226 38926 ft 524 kts 83°
2026-05-08 05:32 26.97232 82.94371 38931 ft 524 kts 83°
2026-05-08 05:32 26.98024 83.02500 38929 ft 524 kts 83°
2026-05-08 05:33 26.98859 83.10624 38927 ft 524 kts 83°
2026-05-08 05:33 26.99697 83.18757 38928 ft 524 kts 83°
2026-05-08 05:34 27.00519 83.26826 38925 ft 524 kts 83°
2026-05-08 05:34 27.01338 83.34944 38788 ft 522 kts 83°
2026-05-08 05:34 27.01744 83.38989 38278 ft 523 kts 83°
2026-05-08 05:35 27.02152 83.43056 37588 ft 524 kts 83°
2026-05-08 05:35 27.02560 83.47134 36836 ft 525 kts 83°
2026-05-08 05:35 27.02736 83.48904 36506 ft 526 kts 83°
2026-05-08 05:35 27.03146 83.53016 35741 ft 528 kts 84°
2026-05-08 05:36 27.03553 83.57121 34968 ft 529 kts 84°
2026-05-08 05:36 27.03959 83.61223 34252 ft 529 kts 84°
2026-05-08 05:36 27.04363 83.65322 33511 ft 527 kts 84°
2026-05-08 05:36 27.04764 83.69406 32696 ft 525 kts 84°
2026-05-08 05:37 27.05161 83.73458 31963 ft 520 kts 84°
2026-05-08 05:37 27.05554 83.77484 31265 ft 516 kts 84°
2026-05-08 05:37 27.05937 83.81420 30596 ft 512 kts 84°
2026-05-08 05:37 27.06322 83.85380 29915 ft 508 kts 84°
2026-05-08 05:38 27.06702 83.89308 29138 ft 505 kts 84°
2026-05-08 05:38 27.06956 83.91943 28622 ft 502 kts 84°
2026-05-08 05:38 27.07303 83.95545 27928 ft 499 kts 84°
2026-05-08 05:38 27.07673 83.99396 27196 ft 495 kts 84°
2026-05-08 05:39 27.08039 84.03225 26488 ft 491 kts 84°
2026-05-08 05:39 27.08401 84.07017 25801 ft 487 kts 83°
2026-05-08 05:39 27.08758 84.10782 25121 ft 483 kts 83°
2026-05-08 05:39 27.09112 84.14518 24461 ft 479 kts 83°
2026-05-08 05:40 27.09462 84.18217 23817 ft 475 kts 83°
2026-05-08 05:40 27.09809 84.21896 23104 ft 471 kts 83°
2026-05-08 05:40 27.10147 84.25490 22361 ft 467 kts 83°
2026-05-08 05:40 27.10487 84.29102 21625 ft 463 kts 83°
2026-05-08 05:41 27.10823 84.32687 20909 ft 459 kts 83°
2026-05-08 05:41 27.11156 84.36247 20215 ft 455 kts 84°
2026-05-08 05:41 27.11484 84.39761 19534 ft 451 kts 84°
2026-05-08 05:41 27.11808 84.43247 18865 ft 446 kts 84°
2026-05-08 05:42 27.12125 84.46703 18203 ft 442 kts 84°
2026-05-08 05:42 27.12440 84.50122 17450 ft 438 kts 84°
2026-05-08 05:42 27.12750 84.53473 16725 ft 434 kts 84°
2026-05-08 05:42 27.13055 84.56783 16284 ft 423 kts 84°
2026-05-08 05:43 27.13353 84.60034 16026 ft 407 kts 84°
2026-05-08 05:43 27.13641 84.63168 15556 ft 400 kts 84°
2026-05-08 05:43 27.13920 84.66220 15293 ft 387 kts 84°
2026-05-08 05:43 27.14179 84.69191 15073 ft 375 kts 84°
2026-05-08 05:44 27.14402 84.72063 15002 ft 368 kts 85°
2026-05-08 05:44 27.14623 84.74976 14998 ft 378 kts 85°
2026-05-08 05:44 27.14847 84.77912 15000 ft 377 kts 85°
2026-05-08 05:44 27.15073 84.80848 15005 ft 376 kts 85°
2026-05-08 05:45 27.15297 84.83734 15005 ft 376 kts 85°
2026-05-08 05:45 27.15524 84.86667 15009 ft 376 kts 85°
2026-05-08 05:45 27.15751 84.89597 15010 ft 377 kts 85°
2026-05-08 05:45 27.15978 84.92538 15010 ft 377 kts 85°
2026-05-08 05:46 27.16204 84.95470 15019 ft 376 kts 85°
2026-05-08 05:46 27.16715 84.98302 14975 ft 375 kts 69°
2026-05-08 05:46 27.17956 85.00867 14635 ft 374 kts 54°
2026-05-08 05:46 27.19549 85.03186 14038 ft 376 kts 50°
2026-05-08 05:47 27.21247 85.05457 13205 ft 381 kts 49°
2026-05-08 05:47 27.22946 85.07743 12581 ft 379 kts 50°
2026-05-08 05:47 27.24603 85.10034 12053 ft 374 kts 51°
2026-05-08 05:47 27.26192 85.12281 11589 ft 369 kts 52°
2026-05-08 05:48 27.27765 85.14534 11116 ft 363 kts 52°
2026-05-08 05:48 27.29376 85.16686 10658 ft 357 kts 44°
2026-05-08 05:48 27.31330 85.18385 10248 ft 352 kts 31°
2026-05-08 05:48 27.33482 85.19516 10046 ft 340 kts 22°
2026-05-08 05:49 27.35645 85.20487 9723 ft 333 kts 22°
2026-05-08 05:49 27.37010 85.21106 9623 ft 322 kts 23°
2026-05-08 05:49 27.39024 85.22023 9432 ft 302 kts 23°
2026-05-08 05:49 27.40936 85.22894 8977 ft 294 kts 23°
2026-05-08 05:50 27.42797 85.23743 8730 ft 284 kts 23°
2026-05-08 05:50 27.44648 85.24564 8665 ft 289 kts 18°
2026-05-08 05:50 27.46645 85.24852 8663 ft 290 kts 357°
2026-05-08 05:50 27.48567 85.24409 8639 ft 273 kts 345°
2026-05-08 05:51 27.50343 85.23860 8505 ft 256 kts 346°
2026-05-08 05:51 27.52042 85.23606 8362 ft 238 kts
2026-05-08 05:51 27.53605 85.23835 8296 ft 214 kts 15°
2026-05-08 05:51 27.54930 85.24385 8171 ft 197 kts 28°
2026-05-08 05:52 27.56050 85.25175 8084 ft 184 kts 39°
2026-05-08 05:52 27.56985 85.26072 7961 ft 168 kts 42°
2026-05-08 05:52 27.57828 85.26865 7826 ft 151 kts 41°
2026-05-08 05:52 27.58591 85.27668 7491 ft 150 kts 50°
2026-05-08 05:53 27.59232 85.28588 7141 ft 150 kts 58°
2026-05-08 05:53 27.59767 85.29598 6755 ft 150 kts 60°
2026-05-08 05:53 27.60377 85.30554 6410 ft 150 kts 52°
2026-05-08 05:53 27.61096 85.31405 6061 ft 150 kts 44°
2026-05-08 05:54 27.61913 85.32157 5645 ft 154 kts 36°
2026-05-08 05:54 27.62841 85.32748 5298 ft 151 kts 24°
2026-05-08 05:54 27.63790 85.33186 5051 ft 143 kts 24°
2026-05-08 05:54 27.64712 85.33616 4891 ft 142 kts 26°
2026-05-08 05:55 27.65630 85.34069 4766 ft 143 kts 26°
2026-05-08 05:55 27.66549 85.34494 4681 ft 144 kts 23°
2026-05-08 05:55 27.67474 85.34893 4553 ft 143 kts 25°
2026-05-08 05:55 27.68395 85.35333 4439 ft 143 kts 24°
2026-05-08 05:56 27.69262 85.35739 4394 ft 113 kts 22°
2026-05-08 05:56 27.69797 85.35973 4396 ft 55 kts 21°
2026-05-08 05:56 27.70039 85.36090 4394 ft 35 kts 24°
2026-05-08 05:56 27.70143 85.36123 4397 ft 11 kts 356°
2026-05-08 05:57 27.70198 85.36071 4397 ft 12 kts 279°
2026-05-08 05:57 27.70140 85.36014 4397 ft 13 kts 198°
2026-05-08 05:57 27.70047 85.35974 4397 ft 15 kts 204°
2026-05-08 05:57 27.69944 85.35924 4397 ft 15 kts 201°
2026-05-08 05:58 27.69897 85.35886 4397 ft 2 kts 269°
2026-05-08 05:58 27.69909 85.35870 4397 ft 4 kts 307°
2026-05-08 05:58 27.69928 85.35836 4397 ft 6 kts 290°
2026-05-08 05:58 27.69937 85.35813 4397 ft 2 kts 291°
2026-05-08 05:59 27.69937 85.35811 4397 ft 0 kts 291°